Overview Statistics Trail Chart Weather Telemetry Raw packets
 

This is the latest recevied weather packets stored in our database for station/object KC1BRV. If no packets are shown the sender has not sent any weather packets the latest 10 day(s).

<< 23 24 25 26 27 28 29 >>
Time Temp. Humidity Pressure Rain* Wind** Luminosity Snow
1788460015 25.56° C 80% 1014 hPa 0 mm - 178 W/m² -
1788459711 25.56° C 81% 1014 hPa 0 mm - 140 W/m² -
1788459409 25.56° C 80% 1013.9 hPa 0 mm - 125 W/m² -
1788459104 25.56° C 79% 1014.1 hPa 0 mm - 172 W/m² -
1788458800 26.11° C 78% 1014.1 hPa 0 mm - 268 W/m² -
1788458500 25.56° C 79% 1014 hPa 0 mm - 509 W/m² -
1788458199 25.56° C 81% 1013.9 hPa 0 mm - 286 W/m² -
1788457898 25° C 82% 1014 hPa 0 mm - 318 W/m² -
1788457593 25° C 81% 1014 hPa 0 mm - 292 W/m² -
1788457288 25.56° C 80% 1014.1 hPa 0 mm - 202 W/m² -
1788456983 25.56° C 80% 1014.2 hPa 0 mm - 210 W/m² -
1788456680 25.56° C 83% 1014.1 hPa 0 mm - 239 W/m² -
1788456406 25° C 82% 1014.1 hPa 0 mm - 331 W/m² -
1788456075 25° C 83% 1014.4 hPa 0 mm - 248 W/m² -
1788455774 25° C 83% 1014.3 hPa 0 mm - 358 W/m² -
1788455471 24.44° C 84% 1014.5 hPa 0 mm - 242 W/m² -
1788455169 24.44° C 84% 1014.4 hPa 0 mm - 245 W/m² -
1788454865 24.44° C 85% 1014.6 hPa 0 mm - 185 W/m² -
1788454562 24.44° C 84% 1014.5 hPa 0 mm - 202 W/m² -
1788454258 25° C 85% 1014.7 hPa 0 mm - 167 W/m² -
1788453952 25° C 83% 1014.3 hPa 0 mm - 349 W/m² -
1788453649 25° C 84% 1014.3 hPa 0 mm - 154 W/m² -
1788453348 25° C 84% 1014.4 hPa 0 mm - 173 W/m² -
1788453045 25° C 84% 1014.5 hPa 0 mm - 202 W/m² -
1788452741 25° C 85% 1014.4 hPa 0 mm - 267 W/m² -

* Rain latest hour (hover to see other rain measurements)
** Current wind speed in m/s (hover to see current wind gust speed)